Weather History for KVJI - November, 2013

Change the Weather History Date:

Thursday, November 7, 2013

  Actual Average (KTRI) Record (KTRI)
Temperature  
Mean Temperature 48 °F 50 °F  
Max Temperature 57 °F 62 °F 77 °F (1938)
Min Temperature 39 °F 37 °F 20 °F (1953)
Degree Days  
Heating Degree Days 18 15  
Month to date heating degree days 102  
Since 1 July heating degree days 437  
Cooling Degree Days 0 0  
Month to date cooling degree days 0  
Year to date cooling degree days 980  
Moisture  
Dew Point 44 °F    
Average Humidity 83    
Maximum Humidity 100    
Minimum Humidity 60    
Precipitation  
Precipitation 0.26 in 0.09 in 1.79 in (1995)
Month to date precipitation 0.64  
Year to date precipitation 35.18  
Snow  
Snow 0.00 in 0.00 in - ()
Month to date snowfall 0.0  
Since 1 July snowfall 0.1  
Since 1 September snowfall 0.1  
Snow Depth -    
Sea Level Pressure  
Sea Level Pressure 30.12 in    
Wind  
Wind Speed 4 mph (NW)    
Max Wind Speed 14 mph    
Max Gust Speed 22 mph    
Visibility 9 miles    
Events Rain    
T = Trace of Precipitation, MM = Missing Value Source: NWS Daily Summary

Daily Weather History Graph

Daily Weather History Graph

Search for Another Location

Airport or City:

Trip Planner

Search our weather history database for the weather conditions in past years. The results will help you decide how hot, cold, wet, or windy it might be!

Date:

Astronomy

Nov. 07, 2013 Rise Set
Actual Time 6:58 AM EST 5:25 PM EST
Civil Twilight 6:30 AM EST 5:52 PM EST
Nautical Twilight 6:00 AM EST 6:23 PM EST
Astronomical Twilight 5:29 AM EST 6:53 PM EST
Moon 11:04 AM EST (11/7) 9:36 PM EST (11/7)
Length of Visible Light 11h 21m
Length of Day
10h 27m
Waxing Crescent, 22% of the Moon is Illuminated
Nov 7
Waxing Crescent
Nov 10
First Quarter
Nov 17
Full
Nov 25
Last Quarter
Dec 2
New

Hourly Weather History & Observations

Time (EST) Temp. Windchill Dew Point Humidity Pressure Visibility Wind Dir Wind Speed Gust Speed Precip Events Conditions
12:15 AM 51.1 °F - 49.5 °F 94% 30.11 in 10.0 mi Calm Calm - N/A   Overcast
12:35 AM 52.9 °F - 50.7 °F 92% 30.10 in 10.0 mi Calm Calm - N/A   Overcast
12:55 AM 53.6 °F - 51.1 °F 91% 30.09 in 10.0 mi Calm Calm - N/A   Overcast
1:15 AM 52.9 °F - 50.9 °F 93% 30.08 in 10.0 mi Calm Calm - N/A   Overcast
1:35 AM 53.8 °F - 52.0 °F 94% 30.07 in 10.0 mi SE 3.5 mph - N/A   Overcast
1:55 AM 54.3 °F - 52.3 °F 93% 30.06 in 10.0 mi Calm Calm - N/A   Overcast
2:15 AM 54.7 °F - 52.3 °F 92% 30.06 in 10.0 mi Calm Calm - N/A   Overcast
2:35 AM 54.3 °F - 52.0 °F 92% 30.05 in 10.0 mi Calm Calm - N/A   Overcast
2:55 AM 54.7 °F - 52.3 °F 92% 30.05 in 10.0 mi Calm Calm - N/A   Overcast
3:15 AM 54.5 °F - 52.3 °F 92% 30.04 in 10.0 mi Calm Calm - N/A   Overcast
3:35 AM 54.5 °F - 52.7 °F 94% 30.03 in 10.0 mi Calm Calm - N/A Rain Light Rain
3:55 AM 56.5 °F - 54.1 °F 92% 30.04 in 7.0 mi NNW 5.8 mph - N/A   Drizzle
4:15 AM 56.8 °F - 55.6 °F 96% 30.06 in 5.0 mi NNW 9.2 mph - 0.02 in Rain Rain
4:35 AM 55.6 °F - 55.4 °F 99% 30.06 in 4.0 mi WNW 3.5 mph - 0.03 in   Drizzle
4:55 AM 55.4 °F - 55.4 °F 100% 30.06 in 3.0 mi WSW 3.5 mph - 0.04 in   Drizzle
5:15 AM 55.4 °F - 55.4 °F 100% 30.06 in 4.0 mi WSW 3.5 mph - 0.03 in Rain Rain
5:35 AM 55.4 °F - 55.4 °F 100% 30.05 in 5.0 mi WSW 4.6 mph - 0.06 in Rain Light Rain
5:55 AM 55.4 °F - 55.4 °F 100% 30.04 in 5.0 mi West 3.5 mph - 0.07 in Rain Rain
6:15 AM 55.4 °F - 55.4 °F 100% 30.04 in 5.0 mi WSW 5.8 mph - 0.01 in   Drizzle
6:35 AM 55.6 °F - 55.6 °F 100% 30.03 in 4.0 mi SW 4.6 mph - 0.02 in   Drizzle
6:55 AM 55.4 °F - 55.4 °F 100% 30.03 in 5.0 mi WSW 5.8 mph - 0.03 in Rain Light Rain
7:15 AM 55.6 °F - 55.6 °F 100% 30.04 in 2.5 mi West 3.5 mph - 0.01 in Rain Rain
7:35 AM 55.8 °F - 55.8 °F 100% 30.03 in 3.0 mi WSW 5.8 mph - 0.03 in Rain Light Rain
7:55 AM 56.1 °F - 56.1 °F 100% 30.04 in 4.0 mi West 6.9 mph - 0.03 in   Light Drizzle
8:15 AM 56.3 °F - 56.3 °F 100% 30.04 in 5.0 mi West 6.9 mph - 0.01 in Rain Light Rain
8:35 AM 55.0 °F - 55.0 °F 100% 30.06 in 2.5 mi NNW 13.8 mph 21.9 mph 0.07 in Rain Rain
8:55 AM 53.8 °F - 53.8 °F 100% 30.06 in 7.0 mi North 10.4 mph 18.4 mph 0.08 in Rain Rain
9:15 AM 54.0 °F - 52.7 °F 95% 30.07 in 10.0 mi NNW 8.1 mph 20.7 mph N/A   Overcast
9:35 AM 52.7 °F - 52.5 °F 99% 30.08 in 4.0 mi North 8.1 mph 16.1 mph N/A   Light Drizzle
9:55 AM 51.4 °F - 50.7 °F 97% 30.08 in 5.0 mi North 10.4 mph 19.6 mph 0.01 in   Overcast
10:15 AM 50.9 °F - 49.3 °F 94% 30.09 in 10.0 mi North 5.8 mph 20.7 mph N/A Rain Light Rain
10:35 AM 50.2 °F - 48.7 °F 95% 30.11 in 10.0 mi NNW 6.9 mph 21.9 mph N/A   Overcast
10:55 AM 48.9 °F - 47.5 °F 95% 30.14 in 10.0 mi North 10.4 mph 17.3 mph N/A   Overcast
11:15 AM 48.6 °F - 46.8 °F 93% 30.14 in 10.0 mi NNW 10.4 mph 18.4 mph N/A   Overcast
11:35 AM 48.2 °F - 45.9 °F 92% 30.15 in 10.0 mi North 10.4 mph 16.1 mph N/A   Overcast
11:55 AM 47.5 °F - 45.0 °F 91% 30.16 in 10.0 mi NNW 11.5 mph 17.3 mph N/A   Overcast
12:15 PM 47.5 °F - 43.3 °F 86% 30.16 in 10.0 mi NNW 9.2 mph - N/A   Overcast
12:35 PM 47.3 °F - 42.3 °F 83% 30.16 in 10.0 mi NNW 10.4 mph 18.4 mph N/A   Overcast
12:55 PM 46.9 °F - 42.3 °F 84% 30.15 in 10.0 mi NW 9.2 mph - N/A   Overcast
1:15 PM 47.3 °F - 41.9 °F 82% 30.15 in 10.0 mi NW 10.4 mph 17.3 mph N/A   Overcast
1:35 PM 47.5 °F - 40.6 °F 77% 30.15 in 10.0 mi NNW 10.4 mph 18.4 mph N/A   Overcast
1:55 PM 47.5 °F - 39.2 °F 73% 30.16 in 10.0 mi NNW 5.8 mph 19.6 mph N/A   Mostly Cloudy
2:15 PM 48.4 °F - 37.9 °F 67% 30.16 in 10.0 mi NNW 12.7 mph 19.6 mph N/A   Overcast
2:35 PM 47.7 °F - 36.5 °F 65% 30.14 in 10.0 mi North 5.8 mph - N/A   Mostly Cloudy
2:55 PM 49.6 °F - 38.1 °F 65% 30.13 in 10.0 mi NW 8.1 mph - N/A   Mostly Cloudy
3:15 PM 48.0 °F - 36.5 °F 64% 30.13 in 10.0 mi NNW 8.1 mph - N/A   Scattered Clouds
3:35 PM 47.8 °F - 37.6 °F 68% 30.14 in 10.0 mi North 6.9 mph - N/A   Clear
3:55 PM 47.7 °F - 37.0 °F 67% 30.14 in 10.0 mi NW 11.5 mph - N/A   Scattered Clouds
4:15 PM 48.4 °F - 37.9 °F 67% 30.14 in 10.0 mi NW 8.1 mph - N/A   Scattered Clouds
4:35 PM 48.2 °F - 36.1 °F 63% 30.15 in 10.0 mi NNW 6.9 mph - N/A   Scattered Clouds
4:55 PM 48.2 °F - 35.1 °F 60% 30.15 in 10.0 mi NNW 8.1 mph - N/A   Scattered Clouds
5:55 PM 45.7 °F 43.4 °F 35.1 °F 66% 30.16 in 10.0 mi NNW 4.6 mph - N/A   Scattered Clouds
6:15 PM 45.0 °F 41.8 °F 34.7 °F 67% 30.17 in 10.0 mi NW 5.8 mph - N/A   Clear
6:35 PM 44.8 °F 41.0 °F 34.9 °F 68% 30.18 in 10.0 mi NNW 6.9 mph - N/A   Scattered Clouds
6:55 PM 45.0 °F 40.6 °F 34.2 °F 66% 30.18 in 10.0 mi NNW 8.1 mph - N/A   Scattered Clouds
7:15 PM 44.4 °F 41.2 °F 32.9 °F 64% 30.18 in 10.0 mi NNW 5.8 mph - N/A   Clear
7:35 PM 44.6 °F 43.1 °F 32.4 °F 62% 30.19 in 10.0 mi NW 3.5 mph - N/A   Clear
7:55 PM 43.7 °F 41.1 °F 32.4 °F 64% 30.19 in 10.0 mi NW 4.6 mph - N/A   Clear
8:15 PM 43.3 °F 41.7 °F 32.2 °F 65% 30.18 in 10.0 mi NW 3.5 mph - N/A   Clear
8:35 PM 42.8 °F 39.3 °F 32.2 °F 66% 30.18 in 10.0 mi NW 5.8 mph - N/A   Clear
8:55 PM 42.8 °F 40.1 °F 32.2 °F 66% 30.19 in 10.0 mi NW 4.6 mph - N/A   Clear
9:15 PM 42.6 °F 40.9 °F 32.0 °F 66% 30.19 in 10.0 mi NNW 3.5 mph - N/A   Clear
9:35 PM 42.3 °F - 32.0 °F 67% 30.20 in 10.0 mi Calm Calm - N/A   Clear
9:55 PM 41.9 °F - 32.2 °F 68% 30.20 in 10.0 mi Calm Calm - N/A   Clear
10:15 PM 41.2 °F - 32.0 °F 70% 30.20 in 10.0 mi Calm Calm - N/A   Clear
10:35 PM 40.6 °F - 32.0 °F 71% 30.21 in 10.0 mi Calm Calm - N/A   Clear
10:55 PM 40.3 °F 38.2 °F 31.6 °F 71% 30.21 in 10.0 mi NW 3.5 mph - N/A   Clear
11:15 PM 40.1 °F 34.7 °F 31.1 °F 70% 30.21 in 10.0 mi NNW 8.1 mph - N/A   Clear
11:35 PM 39.6 °F 36.3 °F 31.1 °F 72% 30.22 in 10.0 mi NW 4.6 mph - N/A   Clear
11:55 PM 39.4 °F 36.1 °F 31.1 °F 72% 30.22 in 10.0 mi WNW 4.6 mph - N/A   Clear